Regional Weather Roundup
Issued by NWS Charleston, SC

Current Version | Previous Version | Text Only | Print | Product List | Glossary Off
Versions: 1 2 3 4 5 6 7 8 9 10 11 12 13 14 15 16 17 18 19 20 21 22 23 24 25 26 27 28 29 30 31 32 33 34 35 36 37 38 39 40 41 42 43 44 45 46 47 48 49 50

000
ASUS42 KCHS 310326
RWRCHS

REGIONAL WEATHER ROUNDUP
NATIONAL WEATHER SERVICE CHARLESTON SC
1000 PM EST FRI JAN 30 2015

NOTE: "FAIR" INDICATES FEW OR NO CLOUDS BELOW 12,000 FEET WITH NO
SIGNIFICANT WEATHER AND/OR OBSTRUCTIONS TO VISIBILITY.

NOT ALL STATIONS ARE QUALITY CONTROLLED BY THE NATIONAL
WEATHER SERVICE. USE DATA WITH CAUTION...ESPECIALLY
DEWPOINT OBSERVATIONS.

SCZ027-030-031-034>040-042>050-310400-
...SOUTHEAST SOUTH CAROLINA...

CITY           SKY/WX    TMP DP  RH WIND       PRES   REMARKS
N CHARLESTON   CLEAR     42  23  46 N5        30.28R
WATERFRONT PRK   N/A     48 N/A N/A E8          N/A
MOUNT PLEASANT FAIR      39  30  70 CALM      30.28R
PINOPOLIS        N/A     48  28  46 VRB13     30.17R
MONCKS CORNER  FAIR      46  23  39 N8        30.28R
SUMMERVILLE    NOT AVBL
BEAUFORT MCAS  CLEAR     41  33  73 N6        30.28R
BEAUFORT ARPT  FAIR      45  30  57 N7        30.27R
HILTON HEAD IS CLEAR     41  36  81 N5        30.29R
WALTERBORO     CLEAR     34  23  64 CALM      30.30R
ALLENDALE      FAIR      41  27  56 CALM      30.29R

...SOUTHERN MIDLANDS AND PEE DEE...

CITY           SKY/WX    TMP DP  RH WIND       PRES   REMARKS
GEORGETOWN     NOT AVBL
KINGSTREE      NOT AVBL
ORANGEBURG     CLEAR     43  19  38 N5        30.29R
BARNWELL       FAIR      39  23  52 N7        30.30R WCI  34
AIKEN          FAIR      39  19  45 N8        30.32R WCI  34
MANNING        FAIR      37  25  60 N3        30.29R
COLUMBIA       CLEAR     43  19  38 N8        30.29R
SUMTER         CLEAR     42  18  38 N12       30.28R
FLORENCE       CLEAR     40  17  39 N8        30.30R WCI  34
MYRTLE BEACH   CLEAR     45  18  33 N14       30.28R
N MYRTLE BEACH PTCLDY    42  18  37 N7        30.26R

$$

GAZ063-065-086>088-099>101-113>116-118-119-134>141-150-310400-
...SOUTHEAST GEORGIA...

CITY           SKY/WX    TMP DP  RH WIND       PRES   REMARKS
SAVANNAH ARPT  PTCLDY    43  28  55 CALM      30.28R
HUNTER AAF     CLEAR     45  27  49 NW5       30.25R
FORT STEWART   PTCLDY    40  31  71 CALM      30.27R
STATESBORO     CLEAR     35  32  90 CALM      30.28R
SYLVANIA       CLEAR     39  31  74 N10       30.29R WCI  32
CLAXTON        FAIR      36  34  93 CALM      30.29R

...CSRA...CENTRAL AND FAR SOUTHEAST GEORGIA...

CITY           SKY/WX    TMP DP  RH WIND       PRES   REMARKS
THOMSON        CLEAR     36  30  79 CALM      30.35R
AUGUSTA-BUSH   CLEAR     40  20  44 N6        30.31R WCI  36
AUGUSTA-DANIEL CLEAR     44  17  33 N7        30.30R
SWAINSBORO     FAIR      37  23  56 NW6       30.31R WCI  33
VIDALIA        CLEAR     45  30  57 NW8       30.30R
EASTMAN        FAIR      42  27  56 CALM      30.34R
HAZLEHURST     FAIR      41  33  74 CALM      30.30R
ALMA           PTCLDY    42  32  67 NW3       30.30R
WAYCROSS       PTCLDY    47  33  59 N5        30.29R
JESUP          FAIR      43  34  70 CALM      30.29R
BAXLEY         FAIR      45  32  61 NW5       30.30R
BRUNSWICK      PTCLDY    43  30  61 CALM      30.29R
SAINT SIMONS   PTCLDY    48  29  47 CALM      30.28R

$$

SCZ027-028-034-036>038-045-046-048>050-GAZ119-141-310400-
...LAKE AND SUPPLEMENTAL COASTAL OBSERVATIONS...

STATION/POSITION TIME  TEMP    WIND        PRES    WAVE   SWELL
                       AIR SEA DIR/SP/G            HT/PER HT/PER/DIR
                 (UTC) (F)     (DEG/KT/KT) (MB)    (FT/S) (FT/S/D)
UPR LAKE MARION  NOT AVBL
WINYAH BAY       0245   42     340/  4     1024.0R
LAKE MURRAY      0200   41     340/  2/  6 1025.1R
ACE BASIN NERRS  NOT AVBL
FORT PULASKI     0300   47 52  320/  4/  5 1025.3R
SAPELO ISLAND    0300   44      10/  4     1025.0R

$$

ANZ835-935-AMZ111-154-330-350-352-354-370-450-454-472-310400-
...C-MAN AND BUOY OBSERVATIONS...

STATION/POSITION TIME  TEMP    WIND        PRES    WAVE   SWELL
                       AIR SEA DIR/SP/G            HT/PER HT/PER/DIR
                 (UTC) (F)     (DEG/KT/KT) (MB)    (FT/S) (FT/S/D)
BUOY 41004       0250   53 68  340/ 21/ 29 1023.6R   5/ 6   2/16
BUOY 41008       0250   54 54  350/ 14/ 17 1024.7R   2/ 3
FOLLY BEACH CMAN 0300   46     350/  6/  7 1025.4R
CAPERS NEARSHORE 0200   49     360/ 14/ 16   N/A
FRIPP NEARSHORE  0200   51     350/ 10/ 12 1023.9R


STATION/POSITION TIME  TEMP    WIND        PRES    WAVE   SWELL
                       AIR SEA DIR/SP/G            HT/PER HT/PER/DIR
                 (UTC) (F)     (DEG/KT/KT) (MB)    (FT/S) (FT/S/D)
5E ST. MARYS GA  0221      56                N/A     2/13
FRYING PAN BUOY  0250   49 62  320/ 25/ 29 1023.5R   6/ 5
BUOY 41025       0250   44 65  340/ 25/ 33 1019.9R   5/ 7
CAPE LOOKOUT NC  0300   41     330/ 20/ 26 1022.4R
BUOY 41002       0250   58 71  330/ 23/ 31 1018.6R  12/ 8
BUOY 41010       0220   65 73  340/ 19/ 23 1021.4R
ST AUGUSTINE FL  0300   53     330/ 10/ 12 1025.0R


$$



USA.gov is the U.S. government's official web portal to all federal, state and local government web resources and services.